[[{"header":{"parameterUnit":"m.s-1","parameterCategory":1,"la1":30.2991,"la2":30.254,"lo1":-89.0895,"lo2":-89.0444,"dy":0.0017,"dx":0.0017,"nx":28,"ny":28,"refTime":"2025-11-22T09:00:00:Z","depth":0,"parameterNumber":2,"parameterNumberName":"U-component_of_WINDS"},"data":[0,0,0,0,0,0,0,0,0,0,0,0,0,0,0,0,0,0,0,0,0,0,0,0,0,0,0,0,0,0,0,0,0,0,0,0,0,0,0,0,0,0,0,0,0,0,0,0,0,0,0,0,0,0,0,0,0,0,1.0691,1.0692,0,1.0734,1.0735,1.0735,1.0713,1.0712,1.0711,1.071,1.0755,1.0758,1.076,0,0,0,0,0,0,0,0,0,0,0,0,0,1.059,1.0592,1.0691,1.0692,1.0692,1.0734,1.0735,1.0735,1.0713,1.0712,1.0711,1.0709,1.0755,1.0757,1.076,0,0,0,0,0,0,0,0,0,0,0,0,0,1.0634,1.0593,1.0691,1.0686,1.0686,1.0734,1.0735,1.0736,1.0714,1.0712,1.071,1.0709,1.0754,1.0757,1.076,1.0816,0,0,1.0771,1.0772,0,0,0,0,0,0,0,0,1.0632,1.0638,1.0687,1.0687,1.0687,1.0717,1.0716,1.0763,1.0714,1.0703,1.071,1.0708,1.0744,1.0748,1.076,1.0818,1.082,1.0771,1.0773,1.0775,1.0776,0,0,0,0,0,0,0,1.0629,1.0636,1.0708,1.0687,1.0688,1.0682,1.0687,1.0725,1.0733,1.0704,1.0703,1.0708,1.0744,1.0757,1.0761,1.0821,1.0771,1.0774,1.0776,1.0778,1.0925,1.0927,0,0,0,0,0,0,1.0626,1.0633,1.0707,1.071,1.0654,1.0685,1.069,1.0709,1.0732,1.0734,1.0709,1.0707,1.0752,1.0757,1.0762,1.0828,1.0775,1.0778,1.078,1.0923,1.0926,1.0928,0,0,0,0,0,0,1.0624,1.0632,1.0705,1.0671,1.068,1.0689,1.071,1.0711,1.0724,1.0736,1.0738,1.0721,1.0751,1.0758,1.0802,1.0829,1.0779,1.0783,1.0921,1.0924,1.0927,1.0961,0,0,0,0,0,0,1.0621,1.0632,1.0653,1.0672,1.0682,1.0745,1.0712,1.0713,1.0729,1.0726,1.0748,1.075,1.075,1.0797,1.0806,1.0833,1.0785,1.0919,1.0922,1.0926,1.0957,1.0964,1.097,0,0,0,0,0,1.0617,1.0661,1.0654,1.0663,1.0708,1.0746,1.0752,1.0751,1.0732,1.0753,1.0761,1.0749,1.0825,1.0802,1.0811,1.084,1.0917,1.0921,1.0925,1.0954,1.0963,1.097,0,0,0,0,0,0,1.0646,1.0664,1.0656,1.0707,1.0725,1.0742,1.0769,1.076,1.0784,1.0781,1.0779,1.0784,1.083,1.084,1.0814,1.0895,1.0868,1.0874,1.0887,1.0895,1.0902,1.0898,1.0788,0,0,0,0,0,1.0658,1.0687,1.0701,1.0745,1.0755,1.076,1.0777,1.0774,1.0793,1.0801,1.0812,1.0831,1.0859,1.0877,1.0904,1.0958,1.0962,1.0983,1.0989,1.0994,1.1,1.1028,1.1037,1.0941,1.0941,1.0941,0,0,1.0684,1.0697,1.0716,1.0751,1.0765,1.0795,1.0767,1.08,1.0822,1.0806,1.0848,1.0857,1.0878,1.0928,1.095,1.0937,1.1027,1.1,1.1004,1.1007,1.1034,1.1043,1.1051,1.0944,1.0944,1.0943,0,0,1.0747,1.076,1.0797,1.0811,1.0832,1.0835,1.0844,1.0862,1.0867,1.091,1.0898,1.0924,1.0973,1.0988,1.1002,1.1069,1.1059,1.1078,1.1112,1.114,1.1148,1.1154,1.1178,1.1186,1.1083,1.1083,1.1083,0,1.0776,1.0821,1.0818,1.0852,1.0867,1.0853,1.0891,1.0905,1.0933,1.0945,1.093,1.0989,1.1003,1.1055,1.1071,1.1083,1.1093,1.1076,1.1147,1.1154,1.116,1.1182,1.1191,1.1085,1.1085,1.1085,1.1085,0,1.0856,1.0887,1.0915,1.0942,1.0961,1.0997,1.0999,1.1019,1.1014,1.1019,1.1062,1.1077,1.1106,1.1119,1.1115,1.117,1.1161,1.1147,1.112,1.1171,1.1192,1.1201,1.1089,1.1088,1.1087,1.1087,0,0,1.0938,1.0963,1.0973,1.0985,1.1006,1.103,1.1065,1.1092,1.1109,1.1129,1.1158,1.1199,1.1185,1.1201,1.1199,1.1223,1.1274,1.1205,1.1206,1.1217,1.1335,1.1346,1.1356,1.1267,1.1269,1.127,1.1333,0,1.1002,1.1063,1.1061,1.1117,1.1145,1.1132,1.1162,1.1178,1.1183,1.1208,1.1214,1.1243,1.1223,1.1232,1.1256,1.1263,1.1298,1.1258,1.1294,1.1296,1.1289,1.1367,1.1379,1.1438,1.1342,1.1343,1.1344,0,1.1084,1.1106,1.1165,1.1181,1.1193,1.122,1.1245,1.1269,1.1287,1.1289,1.1306,1.13,1.1335,1.1307,1.1355,1.1328,1.1343,1.1349,1.1351,1.1354,1.1323,1.1372,1.1457,1.1465,1.1357,1.1356,1.1355,0,1.1138,1.1182,1.1223,1.1234,1.1254,1.1273,1.1282,1.1298,1.1315,1.1336,1.1347,1.1373,1.1387,1.1407,1.1407,1.1387,1.1456,1.1428,1.1458,1.1458,1.1474,1.1473,1.1561,1.1483,1.1483,1.1483,1.1483,0,1.1209,1.1246,1.1247,1.1273,1.1313,1.131,1.135,1.1358,1.1372,1.1398,1.1388,1.1413,1.1412,1.1437,1.1438,1.1478,1.1484,1.1487,1.1487,1.1488,1.1487,1.1497,1.1493,1.1486,1.1485,1.1485,1.1484,0,1.1276,1.1279,1.1322,1.1337,1.1342,1.1371,1.1384,1.1407,1.1411,1.1444,1.1452,1.1459,1.1488,1.149,1.1524,1.1524,1.1572,1.1568,1.1566,1.1565,1.1595,1.1592,1.1693,1.1706,1.162,1.1621,1.1621,0,1.1321,1.1349,1.1367,1.1383,1.1393,1.142,1.1437,1.1435,1.1452,1.1474,1.1495,1.1523,1.1545,1.1592,1.16,1.1626,1.1621,1.1655,1.1625,1.1625,1.1621,1.162,1.1622,1.1661,1.1662,1.1663,1.1663,0,1.1401,1.14,1.1424,1.1449,1.1468,1.1487,1.1505,1.1519,1.1519,1.154,1.1569,1.1586,1.162,1.1648,1.1672,1.1682,1.1673,1.1672,1.1681,1.1682,1.168,1.1681,1.1581,1.167,1.1669,1.1669,1.1669,1.1668,1.1458,1.1482,1.1498,1.1524,1.1537,1.1554,1.1576,1.1583,1.1607,1.1634,1.1632,1.1664,1.168,1.1712,1.1724,1.1749,1.1738,1.175,1.1753,1.1756,1.1759,1.1676,1.1753,1.1753,1.1753,1.1753,1.1753,0,1.1537,1.1546,1.1571,1.1595,1.1616,1.1605,1.1624,1.1642,1.167,1.1686,1.1708,1.1741,1.1767,1.1777,1.1802,1.1821,1.1817,1.1827,1.1826,1.1828,1.1767,1.1757,1.183,1.183,1.183,1.183,1.183,1.183,1.158,1.1619,1.1621,1.1666,1.1675,1.1706,1.1717,1.1733,1.1745,1.1782,1.1804,1.181,1.1823,1.1849,1.1873,1.1875,1.1885,1.1897,1.1897,1.184,1.1833,1.1825,1.1816,1.1899,1.1899,1.1956,1.1956,1.1956]},{"header":{"parameterUnit":"m.s-1","parameterCategory":1,"la1":30.2991,"la2":30.254,"lo1":-89.0895,"lo2":-89.0444,"dy":0.0017,"dx":0.0017,"nx":28,"ny":28,"refTime":"2025-11-22T09:00:00:Z","depth":0,"parameterNumber":3,"parameterNumberName":"V-component_of_WINDS"},"data":[0,0,0,0,0,0,0,0,0,0,0,0,0,0,0,0,0,0,0,0,0,0,0,0,0,0,0,0,0,0,0,0,0,0,0,0,0,0,0,0,0,0,0,0,0,0,0,0,0,0,0,0,0,0,0,0,0,0,1.3863,1.3863,0,1.3912,1.3913,1.3913,1.3901,1.39,1.3899,1.3898,1.3949,1.3951,1.3954,0,0,0,0,0,0,0,0,0,0,0,0,0,1.3757,1.3759,1.3863,1.3863,1.3864,1.3912,1.3913,1.3914,1.3901,1.39,1.3898,1.3897,1.3948,1.3951,1.3954,0,0,0,0,0,0,0,0,0,0,0,0,0,1.3805,1.376,1.3863,1.3864,1.3864,1.3912,1.3913,1.3914,1.3901,1.39,1.3898,1.3897,1.3947,1.3951,1.3954,1.4005,0,0,1.3965,1.3966,0,0,0,0,0,0,0,0,1.3802,1.3809,1.3863,1.3864,1.3864,1.3899,1.3894,1.3944,1.3901,1.3887,1.3898,1.3896,1.3934,1.3938,1.3951,1.4007,1.4009,1.3965,1.3967,1.3968,1.3969,0,0,0,0,0,0,0,1.3799,1.3806,1.3882,1.3864,1.3865,1.3861,1.3866,1.3904,1.3918,1.3888,1.3887,1.3893,1.3934,1.3947,1.3952,1.401,1.3965,1.3968,1.397,1.3971,1.4109,1.4111,0,0,0,0,0,0,1.3795,1.3804,1.3881,1.3884,1.3829,1.3864,1.387,1.3889,1.3918,1.392,1.3895,1.3893,1.3942,1.3948,1.3953,1.4014,1.3968,1.3972,1.3974,1.4108,1.411,1.4111,0,0,0,0,0,0,1.3793,1.3802,1.3879,1.3844,1.3853,1.3868,1.3889,1.3891,1.3905,1.3922,1.3925,1.3906,1.3941,1.3949,1.3992,1.4016,1.3973,1.3976,1.4106,1.4108,1.4111,1.4136,0,0,0,0,0,0,1.379,1.3801,1.3821,1.3844,1.3855,1.3917,1.3891,1.3893,1.391,1.3908,1.3934,1.3936,1.3941,1.3987,1.3995,1.402,1.3979,1.4104,1.4107,1.411,1.4133,1.4139,1.4144,0,0,0,0,0,1.3786,1.3826,1.3822,1.3831,1.388,1.3918,1.3924,1.3928,1.3912,1.3932,1.3943,1.3936,1.4011,1.3991,1.4001,1.4026,1.4102,1.4106,1.411,1.413,1.4138,1.4144,0,0,0,0,0,0,1.3805,1.3829,1.3825,1.3873,1.3894,1.3916,1.3941,1.3936,1.3961,1.3958,1.3962,1.3968,1.4012,1.4023,1.4,1.4076,1.4055,1.406,1.4067,1.4074,1.408,1.4076,1.3982,0,0,0,0,0,1.3815,1.3844,1.3863,1.3905,1.3915,1.3926,1.3943,1.3944,1.3965,1.3974,1.3988,1.4009,1.4038,1.4056,1.4084,1.4134,1.4139,1.4156,1.4162,1.4166,1.4171,1.4198,1.4206,1.4123,1.4123,1.4123,0,0,1.3836,1.3853,1.3871,1.3909,1.3925,1.3955,1.3933,1.3966,1.3988,1.3979,1.402,1.4032,1.4055,1.4102,1.4123,1.4113,1.4195,1.4171,1.4174,1.4177,1.4203,1.4211,1.4218,1.4126,1.4125,1.4125,0,0,1.389,1.3905,1.3941,1.3957,1.3981,1.3988,1.3996,1.4019,1.4026,1.4068,1.4061,1.4087,1.4136,1.4153,1.4168,1.4227,1.4221,1.4235,1.4264,1.429,1.4297,1.4303,1.4323,1.4331,1.424,1.424,1.424,0,1.3913,1.3957,1.396,1.3993,1.401,1.4002,1.4038,1.4054,1.4086,1.4097,1.4085,1.4146,1.4161,1.4212,1.4226,1.4238,1.4248,1.4233,1.4296,1.4302,1.4307,1.4327,1.4335,1.4242,1.4242,1.4242,1.4242,0,1.3985,1.4016,1.4042,1.4072,1.4092,1.4126,1.4134,1.4153,1.4152,1.416,1.4202,1.422,1.4251,1.4263,1.4262,1.4313,1.4306,1.4295,1.4273,1.4317,1.4335,1.4343,1.4244,1.4244,1.4243,1.4243,0,0,1.4053,1.4083,1.4093,1.4106,1.4131,1.4155,1.4189,1.4219,1.4235,1.4257,1.4285,1.4327,1.4316,1.4333,1.4335,1.4358,1.4402,1.4343,1.4344,1.4354,1.4459,1.4467,1.4476,1.4398,1.4399,1.4401,1.4457,0,1.4108,1.4168,1.4171,1.4225,1.4253,1.4245,1.4275,1.4293,1.4302,1.4327,1.4336,1.4365,1.4349,1.4359,1.4382,1.4392,1.4423,1.4388,1.4425,1.4426,1.4419,1.4486,1.4495,1.4547,1.4464,1.4465,1.4466,0,1.4181,1.4205,1.4262,1.4282,1.4294,1.4321,1.4348,1.4372,1.4392,1.4397,1.4415,1.4413,1.4447,1.4424,1.4471,1.4447,1.4462,1.4469,1.4471,1.4475,1.4449,1.4492,1.4564,1.4572,1.4478,1.4477,1.4476,0,1.4225,1.4271,1.4311,1.4323,1.4348,1.4366,1.4378,1.4397,1.4414,1.4437,1.4448,1.4476,1.449,1.4511,1.4516,1.4499,1.4563,1.454,1.4568,1.4568,1.4582,1.4581,1.4658,1.4591,1.4591,1.4591,1.4591,0,1.4287,1.4322,1.4331,1.4355,1.4394,1.4397,1.4435,1.4445,1.4462,1.4488,1.4483,1.4508,1.4513,1.4538,1.4542,1.4581,1.4587,1.4592,1.4593,1.4593,1.4592,1.4603,1.4599,1.4593,1.4593,1.4592,1.4592,0,1.4343,1.435,1.4393,1.4413,1.4419,1.4446,1.4463,1.4487,1.4494,1.4527,1.4535,1.4546,1.4576,1.4583,1.4618,1.4621,1.4666,1.4663,1.4659,1.4659,1.4686,1.4683,1.4772,1.4784,1.471,1.471,1.4711,0,1.4382,1.4409,1.4432,1.4449,1.4461,1.4488,1.4505,1.4509,1.4527,1.4552,1.4572,1.4601,1.4625,1.4673,1.4684,1.4711,1.4709,1.4738,1.4713,1.4712,1.4709,1.4708,1.471,1.4743,1.4744,1.4744,1.4745,0,1.4451,1.4453,1.4478,1.4505,1.4525,1.4546,1.4566,1.458,1.4586,1.4607,1.4637,1.4655,1.4691,1.472,1.4747,1.4758,1.4753,1.4753,1.476,1.4761,1.4757,1.476,1.4672,1.4751,1.475,1.475,1.4749,1.4749,1.45,1.4523,1.4543,1.4571,1.4586,1.4604,1.4627,1.4636,1.4662,1.4691,1.4691,1.4724,1.4743,1.4778,1.4791,1.4817,1.4808,1.4819,1.4822,1.4825,1.4827,1.4753,1.4822,1.4822,1.4822,1.4821,1.4821,0,1.4569,1.4581,1.4606,1.4634,1.4656,1.4648,1.4669,1.4688,1.4717,1.4735,1.4758,1.4793,1.482,1.4833,1.4861,1.4878,1.4877,1.4886,1.4884,1.4887,1.4834,1.4824,1.4887,1.4887,1.4887,1.4886,1.4886,1.4886,1.4607,1.4646,1.465,1.4696,1.4707,1.4739,1.4752,1.4769,1.4783,1.4822,1.4845,1.4853,1.4869,1.4897,1.4922,1.4925,1.4935,1.4945,1.4947,1.4897,1.4891,1.4885,1.4876,1.4948,1.4948,1.4998,1.4999,1.4999]}]]